"Pseudo-MPEC" for C00T3K1

Created 2019 Jan 15 15:18:05 UT using Find_Orb

Click here for an explanation of pseudo-MPECs

 
 Astrometry: 
     C00T3K1  C2019 01 12.33410 09 52 32.41 +23 31 56.9    ~1C9I 19.2 GVNEOCP703
     C00T3K1  C2019 01 12.33934 09 52 31.39 +23 32 59.1    ~1C9I 19.5 GVNEOCP703
     C00T3K1  C2019 01 12.34457 09 52 30.38 +23 34 01.4    ~1C9I 20.2 GVNEOCP703
     C00T3K1  C2019 01 12.34981 09 52 29.36 +23 35 04.1    ~1C9I 19.3 GVNEOCP703
     C00T3K1  C2019 01 12.44120 09 52 11.34 +23 53 12.0    ~1CBI 19.4 GVNEOCPI52
     C00T3K1  C2019 01 12.44145 09 52 11.28 +23 53 14.5    ~1CBI 19.3 GVNEOCPI52
     C00T3K1  C2019 01 12.44169 09 52 11.22 +23 53 17.6    ~1CBI 20.0 GVNEOCPI52
     C00T3K1  C2019 01 12.44193 09 52 11.19 +23 53 20.8    ~1CBI 19.5 GVNEOCPI52
     C00T3K1  C2019 01 12.52738 09 51 54.41 +24 10 11.1    ~1CDI 19.4 GVNEOCPI52
     C00T3K1  C2019 01 12.52763 09 51 54.36 +24 10 14.5    ~1CDI 19.3 GVNEOCPI52
     C00T3K1  C2019 01 12.52787 09 51 54.31 +24 10 17.4    ~1CDI 19.3 GVNEOCPI52
     C00T3K1  C2019 01 12.52811 09 51 54.29 +24 10 19.7    ~1CDI 19.6 GVNEOCPI52
     C00T3K1 KC2019 01 12`+XUAstrometryMCR!hlLnWN/hD[+U_!%^NyBBN\'`7w34*hvop-104
     C00T3K1 KC2019 01 12p\L+A^=vfy#MjU:$_][5RQBuX^a)51cL]IG]-dYt=7!-F;e_xFt*104
     C00T3K1 KC2019 01 12nCRWo6MhZ-bwxc^DXJ)1redacted;p#;sug'[$Ilt_Mj2;KsWHqt104
     C00T3K1  C2019 01 13[U38N.%/%:4N,b33,yNWM_ZDYA:f,l)AHYv%^`*RN29jyLvxUTK:P93
     C00T3K1  C2019 01 13o0CjX`J/?bI#;w5Tg4Z=f5K8P9J40KDSpWmt@f\iiQf$_-8@$%UPP93
     C00T3K1  C2019 01 13!sKy'uVclicktov;,?*]_cwlU=q4L!+2DLAj';p'Bk7p;heG-p^mP93
     C00T3K1  C2019 01 13#%ebk0ifTp'$w#p5N1Wm2d=p1PRK?*ivcU^T?MAsxxuZHdb3AUE`P93
     C00T3K1 KC2019 01 13.89703009 47 41.00 +28 36 57.2    ~1DNI 19.9 GVNEOCPJ95
     C00T3K1 KC2019 01 13.90299509 47 39.84 +28 38 06.5    ~1DNI 20.0 GVNEOCPJ95
     C00T3K1 KC2019 01 13.91301209 47 37.77 +28 40 03.1    ~1DNI 19.6 GVNEOCPJ95
     C00T3K1 KC2019 01 13.91799809 47 36.77 +28 41 00.2    ~1DNI 19.7 GVNEOCPJ95
     C00T3K1 KC2019 01 14B,frou1$:8yg6U?25APQTLaSf4I77p44T,LO=PCVOdl**XtKc%Z5K61
     C00T3K1 KC2019 01 148-hereZc425=P?:`n%RS/e'4N,n=M\r'rd?YEyw322QRkJ.-Ys4HK61
     C00T3K1 KC2019 01 14jO%UI8TH5A4HLPTrRTBaV4P$6%tT'MEW,TZDb\4)q60Gj(TxJ;nOL01
     C00T3K1 KC2019 01 14,,s=lMwji3$L*:\,^d`75!+o**J/YDo?=21D/!gBZ9'Nv3g`sXONL01
     C00T3K1 KC2019 01 141XZwwlbuUforcbQwXLRE98qhF4g%6f;!DB[usM]I\14xgl$?8=20L01
     C00T3K1 KC2019 01 15.13560509 43 26.76 +32 30 09.0    ~1F5I 19.4 GVNEOCPJ95
     C00T3K1 KC2019 01 15.13967509 43 25.83 +32 30 53.5    ~1F5I 19.8 GVNEOCPJ95
     C00T3K1 KC2019 01 15.14369809 43 24.88 +32 31 37.9    ~1F5I 19.4 GVNEOCPJ95
     C00T3K1 KC2019 01 15m-QH+M*G1=Jn=[(o#Nsvfj.QXb.5)x\j)*uW4!Xr(nj=P_t$3qEW204
     C00T3K1 KC2019 01 15%\aJeEEvZ!T4s6(c.X#(\jy'GYW]U;4QW^q#^m7_K2lSveS)!C\)204
     C00T3K1 KC2019 01 15D9-Vw$Y5Lpt(A-tN]u9jX:3:wW08_4H^explanationMUn%4M::w204
     C00T3K1  C2019 01 15.40950 09 42 29.03 +33 20 35.7    ~1FAI 19.3 GVNEOCPI52
     C00T3K1  C2019 01 15.40974 09 42 28.99 +33 20 37.8    ~1FAI 19.4 GVNEOCPI52
     C00T3K1  C2019 01 15.40998 09 42 28.93 +33 20 40.8    ~1FAI 19.4 GVNEOCPI52
     C00T3K1  C2019 01 15.41022 09 42 28.87 +33 20 43.0    ~1FAI 19.1 GVNEOCPI52
     C00T3K1  C2019 01 15.51030 09 42 05.69 +33 38 50.2    ~1FDI 19.6 GVNEOCPG96
     C00T3K1  C2019 01 15.51549 09 42 04.49 +33 39 45.8    ~1FDI 19.1 GVNEOCPG96
     C00T3K1  C2019 01 15.52373 09 42 02.61 +33 41 15.5    ~1FDI 19.6 GVNEOCPG96
     C00T3K1  C2019 01 15.53166 09 42 00.85 +33 42 40.4    ~1FDI 19.4 GVNEOCPG96

Station data:
(104) San Marcello Pistoiese  (N44.063037 E10.804200)  Italy. 0.40-m f/5
   reflector.
(204) Schiaparelli Observatory  (N45.867933 E8.770800)  Italy.  Observer L.
   Buzzi. 0.60-m f/4.64 Newtonian + CCD.
(703) Catalina Sky Survey  (N32.417006 W110.732640)  US/Arizona.  Observers
   B. M. Africano, E. J. Christensen, G. A. Farneth, D. C. Fuls, A. R. Gibbs,
   A. D. Grauer, H. Groeller, J. A. Johnson, R. A. Kowalski, S. M. Larson, G.
   J. Leonard, R. L. Seaman, F. C. Shelly. 0.68 m Schmidt + 10K CCD.
(G96) Mt. Lemmon Survey  (N32.442754 W110.788720)  US/Arizona.  Observers B.
   M. Africano, E. J. Christensen, G. A. Farneth, D. C. Fuls, A. R. Gibbs, A.
   D. Grauer, H. Groeller, J. A. Johnson, R. A. Kowalski, S. M. Larson, G. J.
   Leonard, R. L. Seaman, F. C. Shelly. 1.5-m reflector + 10K CCD.
(I52) Steward Observatory, Mt. Lemmon Station  (N32.442547 W110.788920)
   US/Arizona.  Observers B. M. Africano, E. J. Christensen, G. A. Farneth,
   D. C. Fuls, A. R. Gibbs, A. D. Grauer, H. Groeller, J. A. Johnson, R. A.
   Kowalski, S. M. Larson, G. J. Leonard, R. L. Seaman, F. C. Shelly. 1.0-m
   reflector + CCD.
(J95) Great Shefford  (N51.474969 W1.447003)  UK.  Observer P. Birtwhistle.
   0.40-m f/6.0 Schmidt-Cassegrain + CCD.
(K61) Rokycany Observatory  (N49.751403 E13.602600)  Czech Republic.
(L01) Višnjan Observatory, Tičan  (N45.290900 E13.749300)  Croatia.
   Observers K. Korlević, E. Pettarin. Measurer E. Pettarin. 1.0-m f/2.9
   reflector + CCD.
(P93) Space Tracking and Communications Center, JAXA  (N34.672353
   E133.544330)  Japan.

Orbital elements:  C00T3K1
   Perihelion 2018 Oct 4.929854 +/- 0.181 TT = 22:18:59 (JD 2458396.429854)
Epoch 2019 Jan 15.0 TT = JDT 2458498.5   Earth MOID: 0.0711   AutoNEOCP
M  87.72853270 +/- 0.42             (J2000 ecliptic)
n   0.85949257 +/- 0.00266          Peri.  248.93877 +/- 0.31
a   1.09557294 +/- 0.00226          Node   114.02450 +/- 0.022
e   0.2515864 +/- 0.000569          Incl.   36.68434 +/- 0.16
P   1.15/418.84d           H 22.0   G  0.15   U  8.8  
q 0.81994160 +/- 0.00107    Q 1.37120427 +/- 0.00346
From 42 observations 2019 Jan. 12-15; mean residual 0".64
Residuals in arcseconds: 
190112 703  .12-  .18+    190112 104  .58-  .10-    190115 J95  .23+  .38+    
190112 703  .10-  .23-    190113 P93  .45+  .46+    190115 J95  .01+  .02+    
190112 703  .06+  .40-    190113 P93  .22+  .34+    190115 J95  .60-  .10+    
190112 703  .13+  .26-    190113 P93  .50+  .85+    190115 204  .15+  .66+    
190112 I52  .20+  .01+    190113 P93  .54+  .34+    190115 204  .15+  .09+    
190112 I52  .06+  .46-    190113 J95  .02+  .13-    190115 204  .10+  .07+    
190112 I52  .11-  .20-    190113 J95  .49+  .03+    190115 I52  .09-  .42+    
190112 I52  .13+  .15+    190113 J95  .24-  .57+    190115 I52  .11+  .10-    
190112 I52  .14+  .24-    190113 J95  .15-  .08-    190115 I52  .06+  .28+    
190112 I52  .12+  .21+    190114 K61  .67-  3.8-    190115 I52  .01+  .14-    
190112 I52  .07+  .28+    190114 K61  .26-  3.4-    190115 G96  .40+  .31+    
190112 I52  .44+  .25-    190114 L01  .19-  .19+    190115 G96  .28+  .13-    
190112 104  .46-  .22+    190114 L01  .07-  .26+    190115 G96  .34+  .66+    
190112 104  .45-  .10+    190114 L01  .20-  .22+    190115 G96  .96+  .07+    

Ephemerides (geocentric):
Date (UTC) HH   RA              Dec         delta   r     elong  mag " sig PA
---- -- -- --  -------------   -----------  ------ ------ -----  --- ---- ---
2019 01 15 15  09 41 43.050   +33 59 40.47  .19005 1.1545 151.7 19.8 .028  34
2019 01 15 16  09 41 34.039   +34 07 11.68  .19020 1.1547 151.7 19.8 .035  28
2019 01 15 17  09 41 25.008   +34 14 42.13  .19035 1.1548 151.8 19.8 .043  24
2019 01 15 18  09 41 15.956   +34 22 11.79  .19050 1.1550 151.8 19.8 .051  22
2019 01 15 19  09 41 06.884   +34 29 40.68  .19065 1.1551 151.8 19.8 .059  20
2019 01 15 20  09 40 57.791   +34 37 08.78  .19080 1.1553 151.8 19.8 .068  18
2019 01 15 21  09 40 48.678   +34 44 36.09  .19095 1.1555 151.8 19.8 .077  17
2019 01 15 22  09 40 39.545   +34 52 02.60  .19110 1.1556 151.8 19.8 .086  16
2019 01 15 23  09 40 30.391   +34 59 28.32  .19126 1.1558 151.8 19.8 .095  15
2019 01 16 00  09 40 21.217   +35 06 53.23  .19141 1.1559 151.9 19.8 .105  15
2019 01 16 01  09 40 12.022   +35 14 17.34  .19157 1.1561 151.9 19.8 .114  14
2019 01 16 02  09 40 02.806   +35 21 40.64  .19172 1.1563 151.9 19.8 .124  14
2019 01 16 03  09 39 53.570   +35 29 03.13  .19188 1.1564 151.9 19.8 .135  13
2019 01 16 04  09 39 44.314   +35 36 24.80  .19204 1.1566 151.9 19.8 .145  13
2019 01 16 05  09 39 35.037   +35 43 45.65  .19220 1.1567 151.9 19.8 .155  13
2019 01 16 06  09 39 25.740   +35 51 05.67  .19236 1.1569 151.9 19.8 .166  13
2019 01 16 07  09 39 16.422   +35 58 24.87  .19252 1.1571 151.9 19.8 .177  12
2019 01 16 08  09 39 07.083   +36 05 43.24  .19269 1.1572 151.9 19.8 .188  12
2019 01 16 09  09 38 57.725   +36 13 00.77  .19285 1.1574 151.9 19.8 .200  12
2019 01 16 10  09 38 48.345   +36 20 17.46  .19302 1.1575 151.9 19.8 .211  12
2019 01 16 11  09 38 38.945   +36 27 33.31  .19318 1.1577 151.9 19.8 .223  12
2019 01 16 12  09 38 29.525   +36 34 48.32  .19335 1.1579 151.9 19.8 .235  12
2019 01 16 13  09 38 20.084   +36 42 02.48  .19352 1.1580 151.9 19.9 .247  12
2019 01 16 14  09 38 10.622   +36 49 15.79  .19369 1.1582 151.9 19.9 .260  11
2019 01 16 15  09 38 01.140   +36 56 28.24  .19386 1.1583 151.9 19.9 .272  11
2019 01 16 16  09 37 51.637   +37 03 39.84  .19403 1.1585 151.9 19.9 .285  11
2019 01 16 17  09 37 42.114   +37 10 50.58  .19420 1.1586 151.9 19.9 .298  11
2019 01 16 18  09 37 32.570   +37 18 00.45  .19438 1.1588 151.9 19.9 .311  11
2019 01 16 19  09 37 23.006   +37 25 09.45  .19455 1.1590 151.9 19.9 .325  11
2019 01 16 20  09 37 13.421   +37 32 17.59  .19473 1.1591 151.9 19.9 .338  11
2019 01 16 21  09 37 03.816   +37 39 24.85  .19490 1.1593 151.9 19.9 .352  11
2019 01 16 22  09 36 54.190   +37 46 31.24  .19508 1.1594 151.9 19.9 .366  11
2019 01 16 23  09 36 44.544   +37 53 36.74  .19526 1.1596 151.9 19.9 .380  11
2019 01 17 00  09 36 34.877   +38 00 41.37  .19544 1.1598 151.9 19.9 .394  11
2019 01 17 01  09 36 25.190   +38 07 45.11  .19562 1.1599 151.9 19.9 .409  11
2019 01 17 02  09 36 15.482   +38 14 47.97  .19580 1.1601 151.9 19.9 .423  11
2019 01 17 03  09 36 05.753   +38 21 49.93  .19599 1.1602 151.9 19.9 .438  11
2019 01 17 04  09 35 56.004   +38 28 51.01  .19617 1.1604 151.9 19.9 .454  11
2019 01 17 05  09 35 46.234   +38 35 51.19  .19635 1.1605 151.9 19.9 .469  11
2019 01 17 06  09 35 36.444   +38 42 50.47  .19654 1.1607 151.8 19.9 .484  11
2019 01 17 07  09 35 26.634   +38 49 48.85  .19673 1.1609 151.8 19.9 .500  11
2019 01 17 08  09 35 16.803   +38 56 46.33  .19691 1.1610 151.8 19.9 .516  11
2019 01 17 09  09 35 06.951   +39 03 42.90  .19710 1.1612 151.8 19.9 .532  11
2019 01 17 10  09 34 57.079   +39 10 38.57  .19729 1.1613 151.8 19.9 .548  10
2019 01 17 11  09 34 47.186   +39 17 33.33  .19748 1.1615 151.8 19.9 .565  10
2019 01 17 12  09 34 37.273   +39 24 27.18  .19767 1.1617 151.8 19.9 .581  10
2019 01 17 13  09 34 27.339   +39 31 20.11  .19787 1.1618 151.8 19.9 .598  10
2019 01 17 14  09 34 17.385   +39 38 12.12  .19806 1.1620 151.7 19.9 .615  10